Latest Coastal Weather Observations for Maningrida Airport

IDD60701

Issued at 6:25 pm CST Tuesday 21 October 2014 (issued every 10 minutes, with the page automatically refreshed every 10 minutes)

About coastal observations | Map of coastal stations | Coastal observations for NT | Marine services | Other Formats
Station Details ID: 014405 Name: MANINGRIDA AIRPORT Lat: -12.06 Lon: 134.23 Height: 28.1 m
Data from the previous 72 hours. | See also: Recent months at Maningrida Airport
Date/Time
CST
Temp

°C
Wind Pressure Rain
since 9am
mm
Weather Cloud Vis
km
Sea
Height
m
Swell
Dir
 
Speed
knots
Gust
knots
hPa Trend Height
m
Period
s
Dir
21/06:00pm 28.2 CALM 0 2 1011.9 - 0.0 - - 10 - - - -
21/05:30pm 28.8 NNE 2 13 1011.8 - 0.0 - - 10 - - - -
21/05:00pm 29.7 NNE 3 16 1011.5 - 0.0 - - 10 - - - -
21/04:30pm 30.7 NNE 3 16 1011.2 - 0.0 - - 10 - - - -
21/04:00pm 30.3 NE 9 18 1011.3 - 0.0 - - 10 - - - -
21/03:30pm 30.7 CALM 0 - 1011.5 - - - - - - - - -
21/03:00pm 31.3 NE 10 19 1011.7 - 0.0 - - 10 - - - -
21/02:30pm 31.5 NE 8 17 1012.0 - 0.0 - - 10 - - - -
21/02:00pm 31.4 NE 5 16 1012.5 - 0.0 - - 10 - - - -
21/01:30pm 31.7 ENE 3 15 1012.9 - 0.0 - - 10 - - - -
21/01:00pm 31.4 NE 5 17 1013.4 - 0.0 - - 10 - - - -
21/12:30pm 32.0 NE 3 14 1014.0 - 0.0 - - 10 - - - -
21/12:00pm 31.8 NE 1 14 1014.5 - 0.0 - - 10 - - - -
21/11:30am 30.6 NE 5 16 1014.9 - 0.0 - - 10 - - - -
21/11:00am 31.1 ENE 2 15 1015.0 - 0.0 - - 10 - - - -
21/10:30am 30.7 NE 1 12 1015.2 - 0.0 - - 10 - - - -
21/10:00am 30.2 E 1 13 1015.4 - 0.0 - - 10 - - - -
21/09:30am 28.8 ENE 1 13 1015.4 - 0.0 - - 10 - - - -
21/09:00am 28.1 ENE 1 12 1015.4 - 0.0 - - 10 - - - -
21/08:30am 27.6 CALM 0 8 1015.3 - 0.0 - - 10 - - - -
21/08:00am 26.6 CALM 0 0 1014.9 - 0.0 - - 10 - - - -
21/07:30am 25.0 CALM 0 0 1014.6 - 0.0 - - 10 - - - -
21/07:00am 23.1 CALM 0 0 1014.3 - 0.0 - - 10 - - - -
21/06:30am 21.6 CALM 0 0 1014.0 - 0.0 - - 10 - - - -
21/06:00am 21.2 CALM 0 0 1013.7 - 0.0 - - 10 - - - -
21/05:30am 21.1 CALM 0 0 1013.4 - 0.0 - - 10 - - - -
21/05:00am 21.9 CALM 0 0 1013.2 - 0.0 - - 10 - - - -
21/04:30am 21.7 CALM 0 0 1013.1 - 0.0 - - 10 - - - -
21/04:00am 21.9 CALM 0 0 1013.5 - 0.0 - - 10 - - - -
21/03:30am 22.1 CALM 0 0 1013.3 - 0.0 - - 10 - - - -
21/03:00am 22.7 CALM 0 0 1013.3 - 0.0 - - 10 - - - -
21/02:30am 23.2 CALM 0 0 1013.4 - 0.0 - - 10 - - - -
21/02:00am 23.7 CALM 0 0 1013.6 - 0.0 - - 10 - - - -
21/01:30am 24.6 CALM 0 0 1013.8 - 0.0 - - 10 - - - -
21/01:00am 24.8 CALM 0 0 1013.8 - 0.0 - - 10 - - - -
21/12:30am 25.3 CALM 0 0 1014.1 - 0.0 - - 10 - - - -
21/12:00am 26.2 ESE 0 0 1014.2 - 0.0 - - 10 - - - -
 
Date/Time
CST
Temp

°C
Wind Pressure Rain
since 9am
mm
Weather Cloud Vis
km
Sea
Height
m
Swell
Dir
 
Speed
knots
Gust
knots
hPa Trend Height
m
Period
s
Dir
20/11:30pm 26.6 CALM 0 0 1014.4 - 0.0 - - 10 - - - -
20/11:00pm 27.0 CALM 0 0 1014.4 - 0.0 - Partly cloudy 10 - - - -
20/10:30pm 27.3 CALM 0 0 1014.3 - 0.0 - Cloudy 10 - - - -
20/10:00pm 27.2 CALM 0 0 1014.0 - 0.0 - Partly cloudy 10 - - - -
20/09:30pm 27.3 CALM 0 13 1013.7 - 0.0 - Partly cloudy 10 - - - -
20/09:00pm 27.4 CALM 0 12 1013.2 - 0.0 - Cloudy 10 - - - -
20/08:30pm 27.3 ENE 1 15 1012.8 - 0.0 - Partly cloudy 10 - - - -
20/08:00pm 27.3 CALM 0 11 1012.4 - 0.0 - - 10 - - - -
20/07:30pm 27.3 CALM 0 0 1011.9 - 0.0 - - 10 - - - -
20/07:00pm 27.1 CALM 0 0 1011.4 - 0.0 - - 10 - - - -
20/06:30pm 27.2 CALM 0 13 1011.1 - 0.0 - - 10 - - - -
20/06:00pm 27.6 CALM 0 0 1010.8 - 0.0 - - 10 - - - -
20/05:30pm 28.2 NE 1 14 1010.6 - 0.0 - - 10 - - - -
20/05:00pm 28.6 NE 5 18 1010.3 - 0.0 - - 10 - - - -
20/04:30pm 29.5 ENE 6 17 1010.2 - 0.0 - - 10 - - - -
20/04:00pm 29.3 NE 11 20 1010.4 - 0.0 - - 10 - - - -
20/03:30pm 29.8 NE 7 19 1010.5 - 0.0 - - 10 - - - -
20/03:00pm 30.2 NE 7 18 1010.9 - 0.0 - - 10 - - - -
20/02:30pm 31.9 NE 4 19 1011.3 - 0.0 - - 10 - - - -
20/02:00pm 30.2 NE 5 19 1011.6 - 0.0 - - 10 - - - -
20/01:30pm 30.6 NE 8 19 1012.1 - 0.0 - - 10 - - - -
20/01:00pm 31.3 NE 9 18 1012.5 - 0.0 - - 10 - - - -
20/12:30pm 31.0 ENE 11 16 1013.1 - 0.0 - - 10 - - - -
20/12:00pm 33.2 ENE 11 17 1013.5 - 0.0 - Mostly clear 10 - - - -
20/11:30am 33.1 NE 10 15 1013.8 - 0.0 - - 10 - - - -
20/11:00am 31.6 ENE 9 14 1014.2 - 0.0 - - 10 - - - -
20/10:30am 30.7 E 9 13 1014.5 - 0.0 - - 10 - - - -
20/10:00am 30.7 ESE 8 11 1014.8 - 0.0 - - 10 - - - -
20/09:30am 30.4 ESE 8 12 1014.8 - 0.0 - - 10 - - - -
20/09:00am 28.9 E 9 14 1014.9 - 0.0 - - 10 - - - -
20/08:30am 27.0 E 9 15 1014.8 - 0.0 - - 10 - - - -
20/08:00am 25.0 E 9 12 1014.7 - 0.0 - - 10 - - - -
20/07:30am 23.3 ESE 7 9 1014.4 - 0.0 - - 10 - - - -
20/07:00am 21.8 ESE 5 7 1014.2 - 0.0 - - 10 - - - -
20/06:30am 20.7 ESE 4 6 1014.1 - 0.0 - - 10 - - - -
20/06:00am 20.0 E 1 4 1013.8 - 0.0 - - 9 - - - -
20/05:30am 19.9 CALM 0 3 1013.3 - 0.0 - - 10 - - - -
20/05:00am 20.2 SSW 4 5 1013.1 - 0.0 - - 7 - - - -
20/04:30am 20.7 SSE 1 3 1013.0 - 0.0 - - 9 - - - -
20/04:00am 21.6 SSE 3 4 1012.8 - 0.0 - - 10 - - - -
20/03:30am 22.4 SE 4 5 1012.9 - 0.0 - - 10 - - - -
20/03:00am 22.9 ESE 5 6 1012.8 - 0.0 - - 10 - - - -
20/02:30am 23.2 ESE 6 7 1013.0 - 0.0 - - 10 - - - -
20/02:00am 23.5 ESE 4 5 1013.0 - 0.0 - - 10 - - - -
20/01:30am 24.1 SE 5 6 1013.2 - 0.0 - - 10 - - - -
20/01:00am 24.9 SE 7 8 1013.2 - 0.0 - - 10 - - - -
20/12:30am 25.0 ESE 5 7 1013.5 - 0.0 - - 10 - - - -
20/12:00am 25.6 ESE 4 5 1013.7 - 0.0 - - 10 - - - -
 
Date/Time
CST
Temp

°C
Wind Pressure Rain
since 9am
mm
Weather Cloud Vis
km
Sea
Height
m
Swell
Dir
 
Speed
knots
Gust
knots
hPa Trend Height
m
Period
s
Dir
19/11:30pm 26.2 E 5 7 1013.8 - 0.0 - - 10 - - - -
19/11:00pm 26.5 E 5 7 1013.9 - 0.0 - - 10 - - - -
19/10:30pm 26.8 E 6 8 1013.9 - 0.0 - - 10 - - - -
19/10:00pm 27.1 E 7 12 1013.7 - 0.0 - Partly cloudy 10 - - - -
19/09:30pm 27.2 ENE 9 12 1013.4 - 0.0 - Partly cloudy 10 - - - -
19/09:00pm 27.2 ENE 7 11 1013.1 - 0.0 - Mostly cloudy 10 - - - -
19/08:30pm 27.2 ENE 8 11 1012.6 - 0.0 - Partly cloudy 10 - - - -
19/08:00pm 27.2 ENE 8 13 1012.2 - 0.0 - Partly cloudy 10 - - - -
19/07:30pm 27.3 NE 9 14 1011.8 - 0.0 - Partly cloudy 10 - - - -
19/07:00pm 27.4 NE 9 13 1011.4 - 0.0 - Partly cloudy 10 - - - -
19/06:30pm 27.6 ENE 9 13 1011.3 - 0.0 - Partly cloudy 10 - - - -
19/06:00pm 27.8 ENE 13 18 1011.0 - 0.0 - Cloudy 10 - - - -
19/05:30pm 28.5 NE 11 17 1010.7 - 0.0 - Partly cloudy 10 - - - -
19/05:00pm 28.7 NNE 12 15 1010.3 - 0.0 - Partly cloudy 10 - - - -
19/04:30pm 29.2 NNE 12 20 1010.3 - 0.0 - Partly cloudy 10 - - - -
19/04:00pm 30.0 NNE 13 18 1010.2 - 0.0 - - 10 - - - -
19/03:30pm 30.2 NE 12 18 1010.4 - 0.0 - - 10 - - - -
19/03:00pm 31.2 NE 13 18 1010.6 - 0.0 - - 10 - - - -
19/02:30pm 31.0 NE 14 21 1010.9 - 0.0 - - 10 - - - -
19/02:00pm 31.0 ENE 13 19 1011.1 - 0.0 - - 10 - - - -
19/01:30pm 31.0 ENE 12 19 1011.6 - 0.0 - - 10 - - - -
19/01:00pm 30.9 NE 13 19 1012.1 - 0.0 - - 10 - - - -
19/12:30pm 30.7 ENE 12 18 1012.6 - 0.0 - Partly cloudy 10 - - - -
19/12:00pm 31.1 ENE 12 17 1013.2 - 0.0 - - 10 - - - -
19/11:30am 30.9 ENE 11 18 1013.6 - 0.0 - Partly cloudy 10 - - - -
19/11:00am 30.6 NE 13 18 1013.9 - 0.0 - Partly cloudy 10 - - - -
19/10:30am 30.0 E 10 16 1014.2 - 0.0 - Partly cloudy 10 - - - -
19/10:00am 29.2 E 12 19 1014.2 - 0.0 - Partly cloudy 10 - - - -
19/09:30am 29.0 NE 11 13 1014.2 - 0.0 - Partly cloudy 10 - - - -
19/09:00am 28.0 E 11 15 1014.3 - 0.0 - Cloudy 10 - - - -
19/08:30am 28.3 E 9 13 1014.1 - 0.0 - Partly cloudy 10 - - - -
19/08:00am 27.4 E 6 9 1013.9 - 0.0 - - 10 - - - -
19/07:30am 26.0 SE 6 8 1013.6 - 0.0 - - 10 - - - -
19/07:00am 25.1 SSE 5 7 1013.4 - 0.0 - - 10 - - - -
19/06:30am 23.6 SE 5 6 1012.9 - 0.0 - - 10 - - - -
19/06:00am 23.4 SSE 5 6 1012.6 - 0.0 - - 10 - - - -
19/05:30am 23.7 SSE 4 4 1012.2 - 0.0 - - 10 - - - -
19/05:00am 24.3 SSE 3 4 1012.0 - 0.0 - Partly cloudy 10 - - - -
19/04:30am 24.8 SSE 3 4 1011.8 - 0.0 - Partly cloudy 10 - - - -
19/04:00am 25.4 SSE 4 5 1011.8 - 0.0 - Partly cloudy 10 - - - -
19/03:30am 25.9 ESE 4 6 1011.7 - 0.0 - Partly cloudy 10 - - - -
19/03:00am 26.2 SSE 5 7 1011.8 - 0.0 - Cloudy 10 - - - -
19/02:30am 26.6 SE 6 7 1011.9 - 0.0 - Cloudy 10 - - - -
19/02:00am 26.4 SSE 5 7 1012.0 - 0.0 - Cloudy 10 - - - -
19/01:30am 26.9 ESE 6 7 1012.3 - 0.0 - Cloudy 10 - - - -
19/01:00am 26.8 ESE 4 6 1012.5 - 0.0 - Partly cloudy 10 - - - -
19/12:30am 27.1 ESE 4 7 1012.9 - 0.0 - Partly cloudy 10 - - - -
19/12:00am 27.1 E 5 8 1013.1 - 0.0 - Cloudy 10 - - - -
 
Date/Time
CST
Temp

°C
Wind Pressure Rain
since 9am
mm
Weather Cloud Vis
km
Sea
Height
m
Swell
Dir
 
Speed
knots
Gust
knots
hPa Trend Height
m
Period
s
Dir
18/11:30pm 27.2 E 5 7 1013.1 - 0.0 - Partly cloudy 10 - - - -
18/11:00pm 27.4 E 6 9 1013.2 - 0.0 - Partly cloudy 10 - - - -
18/10:30pm 27.4 E 5 7 1013.2 - 0.0 - Partly cloudy 10 - - - -
18/10:00pm 27.4 ENE 8 10 1013.1 - 0.0 - Partly cloudy 10 - - - -
18/09:30pm 27.4 ENE 7 11 1012.9 - 0.0 - Partly cloudy 10 - - - -
18/09:00pm 27.5 ENE 8 13 1012.6 - 0.0 - Mostly cloudy 10 - - - -
18/08:30pm 27.3 ENE 6 11 1012.3 - 0.0 - Partly cloudy 10 - - - -
18/08:00pm 27.3 NE 8 11 1012.1 - 0.0 - Partly cloudy 10 - - - -
18/07:30pm 27.3 NE 6 8 1011.9 - 0.0 - Partly cloudy 10 - - - -
18/07:00pm 27.4 NNE 7 9 1011.6 - 0.0 - - 10 - - - -
18/06:30pm 27.7 NNE 7 10 1011.0 - 0.0 - - 10 - - - -

Other Formats:

Comma delimited format used in spreadsheet applications
http://www.bom.gov.au/fwo/IDD60701/IDD60701.95142.axf

JavaScript Object Notation format (JSON) in row-major order
http://www.bom.gov.au/fwo/IDD60701/IDD60701.95142.json